TimeCDT,TemperatureF,Dew PointF,Humidity,Sea Level PressureIn,VisibilityMPH,Wind Direction,Wind SpeedMPH,Gust SpeedMPH,PrecipitationIn,Events,Conditions,WindDirDegrees,DateUTC
12:56 AM,75.0,73.0,94,29.85,10.0,Calm,Calm,-,N/A,,Scattered Clouds,0,2012-09-08 05:56:00
1:56 AM,75.0,73.0,94,29.85,10.0,Calm,Calm,-,N/A,,Clear,0,2012-09-08 06:56:00
2:56 AM,73.9,73.0,97,29.84,10.0,Calm,Calm,-,N/A,,Partly Cloudy,0,2012-09-08 07:56:00
3:56 AM,73.9,72.0,93,29.83,10.0,Calm,Calm,-,N/A,,Partly Cloudy,0,2012-09-08 08:56:00
4:56 AM,75.0,73.0,94,29.83,10.0,NNE,4.6,-,N/A,,Mostly Cloudy,20,2012-09-08 09:56:00
5:56 AM,73.9,73.0,97,29.84,7.0,North,5.8,-,N/A,,Mostly Cloudy,350,2012-09-08 10:56:00
6:56 AM,73.9,72.0,93,29.85,6.0,NNE,3.5,-,N/A,,Mostly Cloudy,30,2012-09-08 11:56:00
7:48 AM,75.2,73.4,94,29.87,6.0,ENE,4.6,-,N/A,,Mostly Cloudy,60,2012-09-08 12:48:00
7:56 AM,77.0,73.9,90,29.86,6.0,East,4.6,-,N/A,,Mostly Cloudy,80,2012-09-08 12:56:00
8:56 AM,81.0,75.0,82,29.87,10.0,Calm,Calm,-,N/A,,Scattered Clouds,0,2012-09-08 13:56:00
9:56 AM,84.0,75.0,74,29.88,10.0,NW,6.9,-,N/A,,Mostly Cloudy,320,2012-09-08 14:56:00
10:16 AM,84.2,73.4,70,29.89,10.0,West,6.9,-,N/A,,Mostly Cloudy,280,2012-09-08 15:16:00
10:44 AM,84.2,73.4,70,29.88,10.0,NNW,5.8,-,N/A,,Mostly Cloudy,340,2012-09-08 15:44:00
10:56 AM,84.9,72.0,65,29.87,10.0,WNW,6.9,-,N/A,,Mostly Cloudy,290,2012-09-08 15:56:00
11:17 AM,84.2,71.6,66,29.88,10.0,NW,5.8,-,N/A,,Mostly Cloudy,310,2012-09-08 16:17:00
11:42 AM,86.0,73.4,66,29.87,10.0,NNW,5.8,-,N/A,,Mostly Cloudy,340,2012-09-08 16:42:00
11:56 AM,89.1,73.0,59,29.85,10.0,Variable,6.9,-,N/A,,Mostly Cloudy,0,2012-09-08 16:56:00
12:56 PM,89.1,73.0,59,29.83,10.0,NNW,5.8,-,N/A,,Mostly Cloudy,330,2012-09-08 17:56:00
1:56 PM,91.0,72.0,53,29.80,10.0,Calm,Calm,-,N/A,,Mostly Cloudy,0,2012-09-08 18:56:00
2:56 PM,91.0,73.0,55,29.79,10.0,NNW,6.9,-,N/A,,Mostly Cloudy,340,2012-09-08 19:56:00
3:56 PM,91.0,72.0,53,29.79,10.0,WNW,8.1,-,N/A,,Scattered Clouds,300,2012-09-08 20:56:00
4:56 PM,80.1,72.0,76,29.81,10.0,North,17.3,27.6,N/A,,Scattered Clouds,360,2012-09-08 21:56:00
5:56 PM,80.1,71.1,74,29.83,10.0,North,8.1,19.6,N/A,,Overcast,10,2012-09-08 22:56:00
6:56 PM,79.0,71.1,77,29.84,10.0,NNW,5.8,-,N/A,,Mostly Cloudy,340,2012-09-08 23:56:00
7:56 PM,77.0,71.1,82,29.86,10.0,NNW,4.6,-,N/A,,Mostly Cloudy,330,2012-09-09 00:56:00
8:56 PM,75.9,71.1,85,29.88,10.0,NW,5.8,-,N/A,,Scattered Clouds,320,2012-09-09 01:56:00
9:56 PM,75.0,72.0,90,29.91,10.0,NNW,3.5,-,N/A,,Scattered Clouds,330,2012-09-09 02:56:00
10:19 PM,75.2,71.6,89,29.93,10.0,North,9.2,-,N/A,,Mostly Cloudy,350,2012-09-09 03:19:00
10:43 PM,75.2,69.8,83,29.93,10.0,North,12.7,-,N/A,,Overcast,360,2012-09-09 03:43:00
10:56 PM,75.0,69.1,82,29.92,10.0,North,11.5,-,N/A,,Mostly Cloudy,350,2012-09-09 03:56:00
11:56 PM,73.9,66.0,76,29.91,10.0,North,11.5,21.9,N/A,,Mostly Cloudy,350,2012-09-09 04:56:00